STARLINK-34640, 65092

Orbit data source: Space-Track

STARLINK-34640, 65092 is a payload satellite owned by SpaceX/Seattle (US) in LEO that was launched on Mon, 04 Aug 2025 UTC via an FALCON 9 launch vehicle from the Air Force Eastern Test Range (AFETR). Payload-class satellites include a variety of spacecraft equipped with specific instruments for various scientific and technological missions. These include communications satellites like Starlink; space stations such as the ISS; scientific satellites like the Hubble; Earth observation satellites from companies like Planet Labs, Umbra, and HawkEye 360; GPS; miniature CubeSats for education and research; and military/defense satellites.

Loading next visibility...
Identifier
65092, 2025-167Q
Orbit
LEO
Country
Flag of USUS
Related business
Manufacturer
SpaceX/Seattle
Mission
Operational Commercial Communications
Bus & Motor
STARLINK V2MO, Unknown motor
Mass
575 kg wet, ~530 kg dry
Launch date (UTC)
2025-08-04 (9 months ago)
Launch vehicle
FALCON 9
Launch site
Air Force Eastern Test Range (AFETR)
Object type
Payload
Rocket body
Debris
Shape & HBR
Box + 2 Pan, 17.7 m
Radar Cross Section
36.964 m², Large (>1 m²)

Expand to show TLE details & history
Last TLE update: 11 hours ago

TLE from 11 hours ago
0 STARLINK-34640
1 65092U 25167Q   26127.25324995  .00013307  00000-0  46061-3 0  9994
2 65092  53.1576 114.8150 0001227  86.4669 273.6472 15.30198406 42444
Epoch: 2026-05-07T06:04Z
TLE epoch observation values (Epoch: 2026-05-07T06:04:40.795Z)
Latitude
-0.00003°
Longitude
158.54295°
Altitude
476.066 km
Speed
7.629 km/s
True Right ascension
07h 39m 15s
True Declination
0° 00' 00"
Sunlit
Object was in daylight at epoch
Visualization orbit readout
Latitude
Unknown
Longitude
Unknown
Altitude
Unknown
Speed
Unknown
Apparent Right ascension
Unknown
Apparent Declination
Unknown
Sunlit
N/A
Visualization observer readout
Local Sidereal Time
00:45:29
Azimuth
Unknown
Elevation
Unknown
Doppler factor
Unknown
Orbital elements
Apogee altitude
476.318 km
Perigee altitude
474.636 km
Semi-major axis
6,853.614 km
Eccentricity
0.00012
Inclination
53.1576°
RAAN
114.815°
Arg. of periapsis
86.4669°
True anomaly
273.63317°
Mean anomaly
273.6472°
Eccentric anomaly
273.64018°
Mean motion
3.82528 °/min
Orbital period
94.11 mins
BSTAR
0.00046061
Loading maneuver chart data...
Computing Atmospheric mass density...
Loading historical data...
Loading historical data...
Loading historical data...
Loading historical data...
Loading historical data...
Loading historical data...
Loading historical data...

Documentation

Showing up to 5 results
|